Location: East Guldeford
(50.9500°N, 0.7500°E)
Time: 07:31:12
(UTC+00:00)

Cosmos 2344 - Pass Details

Date: 12 May 2021
Orbit: 1239 x 3003 km, 63.3° (Epoch: 16 June)

Event Time Altitude Azimuth Distance (km) Brightness Sun altitude
Rises 23:15:59 0° 314° (NW) 4,437 7.3 -20.2°
Reaches altitude 10° 23:18:33 10° 315° (NW) 3,580 6.7 -20.2°
Maximum altitude 23:27:26 84° 45° (NE) 1,789 4.3 -20.4°
Enters shadow 23:39:43 10° 134° (SE) 4,832 6.2 -20.6°
